Temperature
32 32 31 32 32 33 33 33 33 33 34 34 33 32 31 31 30 29 28 28 26 26 25 24 23 22 21 20 20 20 19 19 19 19 19 19 19 19 19 19 19 19 19 19
32 32 33 34 34 33 33 33 33 34 34 34 33 32 32 32 31 30 29 28 27 26 25 24 23 23 22 21 20 20 20 20 19 19 19 19 19 19 19 19 19 19 19 19
32 33 34 34 33 33 33 33 33 32 34 34 33 32 32 32 31 31 30 29 28 27 26 24 23 23 22 21 20 20 20 20 20 19 19 19 19 19 20 20 19 19 19 19
33 34 34 33 33 33 32 33 33 33 32 31 32 31 31 32 32 31 31 30 29 28 26 25 24 23 22 22 21 20 20 20 20 20 19 19 19 19 20 20 20 20 19 19
32 33 33 32 33 33 33 34 33 32 31 31 31 31 31 31 31 31 31 30 29 28 27 26 24 24 23 22 21 21 20 20 20 20 20 19 19 20 20 20 20 20 19 19
33 34 34 33 34 34 34 33 32 32 31 29 31 30 30 30 31 31 31 30 30 28 28 27 25 24 24 23 22 21 20 20 20 20 20 20 20 20 20 20 20 20 19 19
32 33 34 34 33 33 33 31 30 29 29 29 31 31 30 31 32 32 31 30 30 29 28 27 26 25 24 23 22 22 21 21 20 20 20 20 20 20 20 20 20 20 19 19
31 31 33 33 33 32 32 32 30 29 29 30 30 31 31 32 31 32 31 30 30 29 28 27 26 25 24 24 23 22 21 21 21 20 20 20 20 20 20 20 19 19 19 19
31 31 33 34 34 33 32 32 33 31 31 30 30 30 30 32 31 32 31 30 29 29 28 27 26 25 24 24 23 23 22 21 21 21 20 20 20 20 20 20 19 19 19 19
31 30 32 33 33 33 33 32 32 31 29 29 30 30 29 30 30 31 31 30 29 29 28 28 27 26 25 24 24 23 22 22 21 21 20 20 20 20 20 20 19 19 19 19
32 30 31 32 32 32 32 32 31 30 30 29 28 29 31 30 31 31 31 30 29 29 28 28 27 26 25 24 24 23 22 22 21 21 20 20 20 20 20 20 19 19 19 19
31 30 30 31 33 33 32 32 31 30 29 29 29 29 32 31 30 30 30 29 29 28 28 27 26 26 25 24 24 23 22 22 21 21 20 20 20 20 20 19 19 19 19 19
29 29 28 29 31 32 31 32 32 31 30 29 29 29 31 31 30 29 29 28 27 27 27 26 26 25 25 24 24 23 22 22 21 20 20 20 19 19 19 19 19 19 19 19
28 28 28 28 29 30 30 31 31 31 30 29 29 29 29 30 29 29 28 27 26 26 26 26 25 24 24 23 23 23 22 22 21 20 20 20 19 19 19 19 19 19 19 19
29 28 28 29 30 30 30 31 31 30 30 30 29 29 29 29 29 28 27 26 26 25 25 25 24 23 23 23 22 22 22 21 21 20 20 19 19 19 19 18 18 18 18 18
28 27 27 27 29 30 30 30 30 30 31 30 30 29 30 29 29 28 27 26 25 25 24 24 23 23 22 22 22 22 22 21 21 20 20 19 19 19 18 18 18 18 18 18
27 26 25 26 28 28 28 29 30 30 30 30 29 29 30 29 28 27 26 25 25 24 23 23 22 22 21 21 21 21 21 21 20 20 19 19 19 18 18 18 18 18 17 18
26 25 25 25 26 25 28 30 30 29 30 30 29 29 29 28 27 26 25 25 24 23 22 22 21 21 21 21 20 20 20 20 20 19 19 19 18 18 18 18 17 17 17 17
27 25 24 24 25 25 28 29 29 28 28 29 28 28 28 27 27 25 24 24 23 22 21 21 20 20 20 20 20 20 19 19 19 19 18 18 18 18 17 17 17 17 17 17
26 25 24 24 23 24 26 28 28 28 26 27 27 26 26 26 25 24 23 22 22 21 20 20 20 19 19 19 19 19 19 19 18 18 18 18 17 17 17 17 17 17 17 17
24 24 23 23 23 24 26 27 27 25 24 25 25 25 24 24 23 22 22 21 21 20 20 19 19 19 19 19 18 18 18 18 18 17 17 17 17 17 17 17 17 16 16 16
24 24 23 23 22 23 24 25 24 23 23 23 23 23 22 22 22 21 21 20 20 19 19 19 19 19 18 18 18 18 17 17 17 17 17 17 17 16 16 16 16 16 16 16
24 24 23 23 22 22 23 23 22 22 22 22 22 22 21 21 21 21 20 19 19 19 18 18 18 18 17 17 17 17 17 16 16 16 16 16 16 16 16 16 16 16 16 16
23 23 23 22 23 23 22 22 22 21 21 21 21 21 21 20 20 20 19 19 18 18 18 17 17 17 17 17 17 16 16 16 16 16 16 16 16 16 16 16 16 16 15 15
21 21 21 21 21 21 21 21 21 20 20 20 20 20 20 20 19 19 18 18 18 17 17 17 17 16 16 16 16 16 16 16 15 15 15 15 15 15 16 16 15 15 15 15
21 21 20 20 20 20 20 20 20 19 19 19 19 19 19 19 18 18 18 18 17 17 17 16 16 16 16 16 16 16 15 15 15 15 15 15 15 15 15 15 15 15 15 15
Wind_Speed
12 11 11 10 9 12 13 10 6 5 6 5 4 8 12 13 14 15 15 15 15 15 15 16 15 15 14 13 12 11 10 9 7 6 6 6 5 5 4 5 7 8 6 6
13 13 12 11 10 11 12 12 8 4 3 3 5 7 12 15 13 14 16 15 15 16 16 16 15 15 15 14 13 12 10 10 9 7 6 5 5 4 5 4 5 7 7 7
16 12 9 10 11 12 11 10 8 8 6 6 8 8 9 12 12 13 14 16 17 17 18 17 16 16 16 15 15 13 11 11 10 9 6 5 4 4 4 5 5 6 8 8
14 12 10 11 12 12 12 10 9 9 9 8 9 8 8 12 12 13 12 13 15 16 17 18 17 16 16 15 14 12 12 11 10 9 8 8 7 6 5 4 5 6 7 7
13 13 12 13 12 11 11 9 8 9 10 12 12 11 6 8 11 12 11 12 13 14 17 19 18 16 16 16 14 13 11 11 10 9 9 8 7 6 5 5 5 6 6 7
15 14 12 12 11 11 10 9 9 10 11 13 13 12 7 7 9 11 12 12 11 13 14 16 17 15 14 15 15 14 12 11 11 10 9 8 7 6 5 5 5 5 5 6
16 15 12 11 12 11 11 10 9 10 10 11 12 11 5 7 7 9 11 11 10 11 13 14 15 15 13 14 14 14 14 12 11 11 9 8 8 7 7 6 6 6 5 5
13 13 14 12 11 10 10 12 11 11 11 9 8 8 2 6 6 6 8 9 9 9 10 12 14 14 14 15 14 14 14 13 13 12 9 8 8 8 7 7 6 6 5 5
11 11 9 10 10 12 13 13 14 14 14 12 8 5 2 4 6 6 8 9 9 8 9 10 13 14 14 13 13 14 14 13 13 12 10 9 9 8 7 7 7 5 4 4
11 10 9 8 10 12 13 12 9 10 10 12 10 7 6 7 6 7 8 8 8 7 7 9 10 13 13 13 12 11 12 13 12 12 11 11 9 8 7 6 6 5 4 4
11 12 12 10 11 12 12 13 11 9 10 11 10 5 2 7 7 7 7 7 7 6 5 7 8 9 11 13 12 11 11 11 11 11 10 9 9 9 8 7 6 5 4 4
8 10 12 13 12 11 12 13 12 10 10 10 11 7 2 5 5 4 5 5 4 4 3 4 5 6 7 9 11 11 10 11 10 9 8 8 7 7 8 7 6 5 5 5
7 7 9 12 11 9 10 11 12 12 11 11 12 6 2 2 3 3 4 4 3 4 3 3 3 4 4 5 7 9 10 11 11 10 9 8 8 7 7 6 5 5 5 5
5 10 13 14 11 10 11 13 13 13 12 12 12 7 5 3 2 2 4 3 1 3 3 3 3 3 2 2 3 6 7 8 10 10 9 8 8 7 6 5 5 6 6 6
7 12 14 17 18 16 15 15 14 15 15 15 11 10 8 4 2 3 3 2 2 1 1 2 3 3 2 1 2 4 5 5 7 8 8 8 7 6 5 5 5 5 6 7
7 10 14 16 18 18 18 17 17 17 15 15 13 11 7 3 2 2 3 4 2 1 1 1 2 2 2 1 1 2 3 4 5 6 6 6 6 6 6 5 5 5 5 6
9 10 12 15 16 18 19 17 16 14 13 14 14 9 4 2 1 1 3 2 2 1 1 1 1 1 2 2 1 2 2 3 5 6 6 6 6 6 6 6 5 5 6 6
10 10 9 14 15 19 14 12 12 12 12 11 9 5 4 2 1 2 3 3 3 2 2 2 2 0 1 1 1 0 1 2 4 4 5 5 5 5 5 4 5 6 6 6
11 9 11 12 16 17 15 11 12 11 10 8 7 6 6 3 1 2 3 4 4 3 2 3 2 3 1 0 1 1 1 2 3 4 5 5 5 5 5 5 5 5 5 5
12 10 11 13 15 15 11 8 7 8 8 4 5 5 7 7 4 0 3 2 3 3 3 1 1 1 1 1 1 1 1 2 2 2 4 4 4 5 6 6 5 5 5 5
11 12 14 15 17 13 8 10 7 7 4 7 6 7 7 6 5 4 3 3 3 3 3 2 1 1 0 1 1 1 0 1 1 1 2 3 3 4 5 5 4 4 5 5
11 10 11 12 15 11 8 7 5 5 6 7 7 6 7 6 5 4 4 3 2 1 1 1 1 2 1 0 1 1 1 1 0 1 1 1 3 4 4 3 4 5 5 5
10 9 7 6 5 2 5 5 5 6 7 7 7 7 6 6 6 4 3 3 3 2 0 1 0 1 1 1 0 1 1 1 1 1 1 2 3 2 3 5 5 5 5 5
9 7 9 10 8 8 8 8 7 6 7 8 8 8 8 6 6 5 3 1 1 1 1 2 1 1 1 1 1 0 1 1 2 2 2 3 3 3 3 4 4 4 3 4
12 10 10 12 11 11 9 8 8 8 8 9 9 9 8 7 6 5 3 1 1 1 1 2 2 1 1 1 0 1 1 2 3 3 3 4 4 3 3 2 2 2 1 2
13 12 11 10 9 10 10 10 10 9 9 10 10 9 9 7 6 5 4 2 1 1 1 2 2 3 2 2 1 1 2 3 3 3 4 4 3 2 2 2 1 1 1 1
Wind_Direction
235 241 251 255 237 255 271 277 260 238 212 220 208 175 174 179 182 173 177 177 174 176 176 170 172 171 167 166 169 175 178 174 178 181 189 198 198 199 193 189 176 178 197 187
242 237 246 255 259 259 270 282 280 261 240 257 239 208 182 184 187 183 181 178 177 178 174 170 175 176 173 171 173 176 180 179 186 187 195 197 197 200 196 190 168 181 193 193
243 250 244 253 260 262 267 275 283 285 283 265 261 231 190 189 193 190 187 183 182 181 176 174 179 179 178 176 179 181 182 180 189 187 190 202 194 209 203 183 177 187 193 199
248 254 256 260 259 264 266 271 276 280 280 277 272 263 205 193 190 189 192 189 185 183 179 177 180 183 183 180 180 178 179 179 186 188 196 201 199 204 205 192 185 188 194 201
251 250 251 255 259 260 267 278 280 283 279 276 266 267 237 210 198 191 188 194 189 186 185 180 182 185 185 182 181 179 176 180 183 189 199 204 209 209 205 197 188 193 194 201
260 256 250 255 261 259 264 271 274 269 265 260 257 258 247 220 213 191 185 189 187 183 187 179 180 180 187 183 182 180 176 180 182 191 200 201 212 215 215 202 188 200 201 203
249 250 249 246 253 248 248 248 257 257 251 257 255 248 226 182 198 195 178 176 180 180 184 177 178 178 181 184 184 180 176 180 184 193 201 200 208 215 220 216 200 205 211 205
244 242 235 235 240 253 249 252 249 257 265 267 263 265 199 152 177 182 166 165 174 181 183 178 176 179 181 184 182 179 176 182 187 193 201 201 202 212 217 216 217 209 222 209
264 259 238 230 236 247 253 250 260 265 270 272 256 248 259 165 160 160 160 162 176 189 184 183 180 179 181 183 182 182 176 180 187 192 195 203 202 212 219 211 216 223 221 223
269 279 267 246 237 238 251 264 267 265 272 274 268 245 217 181 171 170 170 170 176 183 188 183 185 181 181 185 183 181 177 181 187 191 194 200 202 210 216 216 211 212 218 219
265 268 267 257 240 242 236 246 255 270 274 272 276 270 181 172 175 165 155 160 164 170 188 188 182 183 180 181 181 179 174 178 187 193 194 197 195 202 207 209 209 207 208 208
263 267 270 268 261 242 248 252 248 250 258 270 276 269 160 155 144 141 133 126 132 133 154 169 164 162 169 176 178 178 177 181 185 186 187 194 191 195 203 206 204 199 202 212
319 283 270 262 258 249 248 250 251 257 262 259 264 257 184 142 119 130 105 102 100 111 108 127 131 143 157 167 171 182 187 188 185 183 187 192 195 196 201 203 196 198 207 213
296 273 271 269 276 281 262 254 251 254 257 258 260 250 240 226 195 123 107 114 85 94 105 119 108 103 107 145 168 172 190 189 182 181 188 191 196 196 199 199 195 199 205 214
257 264 268 272 276 278 276 270 260 256 259 266 264 253 242 232 217 158 138 135 112 68 91 98 103 107 111 145 202 188 176 180 176 175 186 188 190 190 193 198 202 206 212 222
253 272 282 279 276 277 274 270 268 266 264 263 261 259 250 210 202 181 149 144 137 35 353 82 119 127 137 169 248 216 167 176 169 177 186 184 184 187 191 200 208 207 214 226
280 274 274 274 278 279 268 266 266 266 267 271 268 266 260 262 197 144 125 127 154 181 295 0 82 135 138 163 205 238 195 169 171 176 180 182 182 185 192 206 209 215 217 221
260 273 276 273 274 265 269 283 282 274 274 279 283 284 275 258 224 127 123 119 103 65 11 24 6 25 140 160 185 56 186 169 173 171 178 180 178 186 191 201 212 218 220 222
247 249 259 266 265 263 265 273 282 281 276 299 314 319 314 305 280 116 99 96 103 109 73 33 356 329 4 103 134 141 179 178 174 182 183 178 179 190 198 204 212 221 227 229
233 230 243 255 263 266 278 303 318 296 271 352 345 337 332 329 288 39 74 71 108 110 102 85 301 294 354 36 69 158 183 180 190 193 185 178 184 198 211 215 219 228 228 229
228 226 235 250 257 263 296 323 308 267 308 4 0 0 353 357 1 23 48 62 80 102 115 136 168 160 21 27 96 97 72 244 239 217 195 193 203 212 215 217 220 226 233 233
256 249 241 249 258 264 355 337 337 352 358 354 353 358 357 356 1 14 33 49 62 65 136 155 83 82 65 60 113 145 208 231 213 202 221 228 225 236 230 213 224 230 232 235
262 268 278 273 273 333 335 334 345 343 341 340 337 340 342 333 327 346 10 8 11 33 326 309 79 112 141 119 169 228 227 209 208 205 227 254 263 253 237 229 233 231 224 231
282 295 283 280 273 291 301 313 314 323 326 321 320 318 313 315 318 319 321 341 14 359 345 324 298 263 199 198 226 261 266 262 252 235 248 255 252 245 250 236 228 234 233 232
296 298 285 277 283 293 290 305 313 318 311 302 301 302 301 307 305 304 299 302 9 351 332 323 325 314 277 246 234 278 274 261 261 262 259 258 249 240 229 244 251 231 250 237
273 276 277 284 302 299 302 311 310 305 298 295 294 291 292 292 293 294 291 288 281 291 310 308 297 299 297 280 259 246 260 262 263 265 264 258 250 236 222 202 219 32 233 186
Height
1472 1474 1474 1469 1466 1465 1463 1464 1467 1463 1456 1460 1465 1470 1472 1476 1479 1483 1488 1492 1497 1501 1506 1509 1513 1516 1519 1522 1524 1527 1530 1532 1535 1538 1540 1542 1544 1546 1547 1549 1550 1551 1552 1553
1471 1472 1465 1461 1460 1461 1462 1466 1465 1460 1454 1459 1464 1466 1466 1470 1475 1478 1483 1487 1492 1497 1502 1506 1510 1514 1517 1519 1521 1524 1527 1530 1533 1535 1538 1540 1542 1544 1546 1547 1548 1549 1550 1552
1470 1464 1459 1460 1461 1463 1463 1466 1466 1466 1458 1457 1464 1468 1466 1467 1470 1475 1479 1483 1488 1492 1497 1502 1506 1510 1514 1516 1518 1521 1524 1527 1530 1533 1536 1539 1541 1542 1544 1545 1546 1547 1548 1550
1461 1458 1458 1460 1462 1462 1468 1458 1460 1464 1469 1473 1471 1482 1468 1463 1466 1470 1474 1479 1483 1488 1493 1498 1502 1507 1510 1513 1516 1519 1522 1524 1527 1531 1533 1535 1537 1539 1541 1542 1544 1545 1546 1547
1462 1457 1459 1462 1459 1458 1460 1456 1460 1463 1470 1476 1471 1479 1473 1463 1466 1466 1469 1475 1479 1484 1489 1493 1498 1502 1507 1510 1514 1516 1519 1521 1524 1527 1530 1533 1535 1537 1539 1540 1541 1543 1544 1545
1457 1453 1453 1455 1453 1454 1455 1459 1462 1465 1471 1487 1474 1478 1479 1466 1462 1462 1466 1471 1475 1480 1484 1489 1494 1499 1503 1507 1511 1514 1516 1518 1521 1524 1527 1530 1532 1534 1536 1538 1539 1540 1541 1542
1462 1454 1451 1452 1456 1454 1456 1469 1486 1491 1490 1486 1464 1468 1468 1456 1454 1457 1461 1467 1472 1477 1480 1485 1490 1495 1499 1503 1507 1510 1512 1515 1518 1521 1524 1526 1529 1531 1533 1535 1536 1537 1539 1539
1468 1465 1451 1450 1455 1459 1458 1464 1485 1498 1494 1481 1468 1469 1459 1451 1454 1456 1460 1465 1470 1474 1478 1481 1486 1491 1495 1499 1503 1506 1508 1511 1514 1517 1520 1523 1525 1528 1530 1531 1533 1534 1536 1537
1462 1461 1444 1445 1447 1452 1459 1460 1455 1467 1472 1479 1473 1465 1458 1451 1453 1455 1460 1464 1469 1472 1475 1479 1483 1487 1491 1495 1499 1502 1505 1507 1510 1513 1516 1519 1521 1524 1526 1528 1530 1531 1533 1534
1454 1463 1449 1444 1446 1448 1451 1452 1459 1468 1484 1489 1475 1469 1467 1458 1456 1456 1458 1462 1467 1471 1474 1477 1480 1484 1488 1492 1495 1499 1501 1504 1507 1510 1513 1516 1518 1520 1523 1525 1526 1528 1529 1531
1451 1461 1457 1449 1452 1453 1453 1456 1459 1463 1467 1482 1488 1477 1451 1454 1453 1454 1457 1461 1465 1468 1472 1474 1477 1481 1485 1488 1492 1496 1499 1501 1504 1507 1510 1513 1515 1517 1519 1520 1522 1524 1526 1527
1452 1457 1462 1453 1442 1440 1446 1450 1455 1471 1473 1469 1476 1473 1447 1450 1453 1455 1457 1462 1465 1467 1470 1473 1476 1479 1483 1486 1489 1492 1495 1498 1500 1503 1506 1509 1511 1513 1515 1517 1518 1520 1522 1523
1458 1464 1474 1468 1455 1446 1448 1447 1449 1453 1460 1467 1475 1471 1449 1451 1454 1456 1459 1463 1467 1468 1471 1473 1475 1478 1481 1484 1487 1489 1492 1494 1497 1500 1502 1505 1507 1509 1511 1513 1515 1516 1518 1520
1463 1466 1471 1476 1465 1454 1453 1449 1447 1453 1462 1465 1464 1463 1455 1452 1455 1457 1460 1465 1467 1469 1472 1474 1475 1477 1479 1482 1484 1486 1488 1491 1493 1496 1499 1501 1503 1505 1507 1509 1511 1512 1514 1515
1461 1467 1463 1458 1452 1448 1449 1447 1446 1449 1451 1458 1456 1456 1453 1451 1454 1458 1461 1465 1467 1470 1472 1474 1476 1477 1479 1481 1482 1483 1485 1488 1490 1492 1495 1498 1500 1502 1504 1505 1507 1508 1510 1512
1461 1467 1466 1463 1454 1449 1449 1445 1444 1445 1445 1447 1450 1451 1446 1450 1454 1458 1461 1465 1468 1471 1473 1475 1476 1478 1479 1479 1481 1482 1483 1485 1487 1489 1491 1494 1496 1498 1500 1501 1502 1504 1506 1507
1464 1468 1472 1470 1458 1454 1457 1446 1443 1443 1442 1444 1449 1448 1446 1449 1453 1457 1460 1465 1468 1470 1473 1474 1476 1477 1478 1478 1479 1481 1481 1483 1485 1486 1487 1490 1492 1494 1495 1497 1499 1499 1501 1503
1467 1472 1473 1471 1469 1477 1453 1438 1437 1440 1441 1441 1442 1443 1446 1450 1453 1456 1459 1463 1467 1470 1473 1474 1475 1476 1476 1477 1478 1478 1479 1480 1481 1483 1485 1487 1489 1490 1492 1493 1494 1496 1497 1498
1461 1468 1473 1473 1472 1463 1448 1441 1441 1444 1446 1443 1445 1447 1448 1450 1452 1457 1460 1462 1466 1469 1471 1472 1473 1475 1474 1475 1476 1476 1476 1478 1479 1481 1482 1484 1485 1486 1488 1489 1490 1491 1493 1494
1457 1461 1471 1472 1476 1473 1455 1443 1443 1446 1452 1448 1449 1451 1451 1452 1455 1459 1461 1463 1465 1468 1469 1471 1472 1473 1473 1473 1474 1475 1475 1476 1477 1478 1479 1480 1481 1482 1484 1485 1486 1488 1489 1490
1460 1463 1467 1469 1470 1461 1452 1448 1447 1460 1461 1454 1454 1455 1456 1458 1460 1462 1462 1463 1464 1466 1468 1469 1470 1472 1472 1472 1473 1473 1474 1475 1475 1476 1477 1477 1478 1479 1480 1481 1482 1483 1484 1485
1459 1461 1463 1465 1469 1467 1456 1453 1457 1460 1458 1458 1458 1459 1460 1461 1462 1462 1463 1463 1464 1465 1466 1468 1469 1469 1470 1470 1470 1471 1472 1473 1473 1473 1474 1474 1475 1476 1477 1478 1478 1479 1480 1481
1455 1457 1458 1461 1465 1461 1460 1461 1461 1461 1461 1461 1461 1462 1462 1462 1463 1463 1463 1463 1463 1463 1465 1467 1468 1468 1468 1468 1469 1470 1471 1471 1471 1470 1471 1471 1472 1472 1472 1473 1474 1476 1477 1478
1456 1456 1458 1460 1458 1459 1460 1460 1461 1462 1463 1463 1463 1463 1463 1463 1463 1463 1463 1463 1463 1464 1465 1465 1466 1466 1466 1467 1467 1468 1469 1469 1468 1468 1468 1468 1469 1469 1469 1470 1471 1472 1473 1474
1462 1461 1460 1460 1460 1460 1460 1461 1461 1461 1462 1462 1463 1463 1463 1463 1463 1462 1463 1462 1462 1463 1463 1464 1465 1465 1465 1466 1466 1466 1467 1466 1466 1466 1465 1465 1466 1466 1466 1466 1467 1469 1469 1471
1462 1462 1462 1461 1461 1462 1461 1461 1461 1461 1461 1461 1461 1461 1461 1461 1461 1461 1462 1461 1461 1462 1462 1463 1463 1464 1464 1464 1464 1464 1464 1464 1463 1462 1462 1462 1463 1463 1464 1464 1464 1465 1466 1467